Hourly Weather Roundup
Issued by NWS Central Illinois

Home | Current Version | Previous Version | Text Only | Print | Product List | Glossary On
Versions: 1 2 3 4 5 6 7 8 9 10 11 12 13 14 15 16 17 18 19 20 21 22 23 24 25 26 27 28 29 30 31 32 33 34 35 36 37 38 39 40 41 42 43 44 45 46 47 48 49 50
000
NZUS43 KILX 200710
HWRILX

Area Weather Roundup
National Weather Service Lincoln IL
100 AM CST SAT JAN 20 2018

NOTE:  "FAIR" indicates few or no clouds below 12,000 feet, with
       no sigificant weather and/or obstructions to visibility.


CITY           SKY/WX    TMP DP  RH WIND       PRES   REMARKS
Bloomington    FAIR      33  27  78 SW18      29.88S WCI  22
Champaign      FAIR      32  28  85 SW13      29.93R WCI  22
Danville       FAIR      32  25  76 SW16G23   29.90R WCI  21
Decatur        FAIR      34  30  85 SW17      29.92R WCI  23
Effingham      FAIR      35  27  73 S9        29.99S WCI  27
Flora          FAIR      35  26  69 SW12      30.01S WCI  26
Galesburg      FAIR      37  30  75 S10       29.84S WCI  30
Jacksonville   MOCLDY    39  26  60 S14G20    29.89F WCI  30
Lacon          FAIR      37  27  67 SW12G17   29.83F WCI  29
Lawrenceville  FAIR      31  22  69 S13       30.03S WCI  21
Litchfield     CLOUDY    31  28  90 S10       29.95R WCI  22
$$


CITY           SKY/WX    TMP DP  RH WIND       PRES   REMARKS
Lincoln        FAIR      33  29  84 S7        29.91S WCI  27
Macomb         CLOUDY    39  29  67 SW12      29.88R WCI  32
Mattoon        FAIR      33  26  75 S12       29.94R WCI  24
Mt Carmel AP   FAIR      32  21  64 SW9       30.03S WCI  24
Olney-Noble AP FAIR      33  20  58 S5        30.02S WCI  29
Paris AP       FAIR      33  26  74 S18G24    29.96S WCI  22
Peoria         FAIR      35  27  72 S9        29.87S WCI  28
Pontiac        FAIR      37  31  79 SW16      29.87S WCI  27
Rantoul        FAIR      35  30  83 SW13G21   29.91R WCI  26
Robinson       FAIR      32  22  67 S10G16    30.02S WCI  24
Springfield    FAIR      36  26  67 S12       29.91R WCI  28
Taylorville    FAIR      34  28  80 S15       29.93S WCI  24
$$

...REGIONAL REPORTS...


CITY           SKY/WX    TMP DP  RH WIND       PRES   REMARKS
Chicago O`Hare FAIR      38  27  64 SW14      29.78R WCI  30
Kankakee       FAIR     N/A N/A N/A SW14      29.87S
Moline         FAIR      40  29  64 SW10      29.80S WCI  33
Mount Sterling CLOUDY    43  28  55 SW13G18   29.87R
Mount Vernon   FAIR      33  25  72 SW10      30.02R WCI  25
Pittsfield     CLOUDY    42  29  59 SW13      29.89F
Quincy         CLOUDY    40  28  62 SW12      29.87S WCI  33
Rockford       FAIR      39  28  64 SW8       29.80R WCI  33
$$


CITY           SKY/WX    TMP DP  RH WIND       PRES   REMARKS
Burlington     PTCLDY    37  28  70 SW12      29.83S WCI  29
Cedar Rapids   FAIR      35  28  75 SW12      29.76S WCI  27
Des Moines     PTCLDY    33  26  75 SW6       29.78S WCI  28
Kirksville     CLOUDY    40  30  67 SW13      29.85S WCI  32
Ottumwa        CLOUDY    38  27  64 SW9       29.80S WCI  31
St Louis       CLOUDY    38  28  67 SW7       29.96R WCI  33
$$


CITY           SKY/WX    TMP DP  RH WIND       PRES   REMARKS
Terre Haute    FAIR      32  20  61 S9        29.99S WCI  24
Evansville     FAIR      35  20  54 SW8       30.07R WCI  29
Indianapolis   MOCLDY    35  22  58 SW17      29.96S WCI  25
Lafayette      FAIR      33  24  69 SW12      29.93R WCI  24
Madison        FAIR      36  27  69 MISG      29.72S
Milwaukee      FAIR      41  29  62 W14G24    29.71S WCI  33
$$






USA.gov is the U.S. government's official web portal to all federal, state and local government web resources and services.